• In United Kingdom
  • List of Countries
  • For 7 days
  • Water Temperature
  • Satellite Maps
  • Weather Map
  • Weather Widgets
  • user-avatar
    Login

    Hourly Weather Kapan

    Today, 20 April, Friday

    Time Temperature Precipitation Wind Pressure Humidity
    00:00 +14°C° 0.6 mm 2 mps 680 mmHg 74%
    01:00 +14°C° 0.2 mm 2 mps 679 mmHg 73%
    02:00 +14°C° 0.2 mm 1 mps 679 mmHg 72%
    03:00 +13°C° 0 mm 1 mps 678 mmHg 74%
    04:00 +13°C° 0 mm 1 mps 678 mmHg 73%
    05:00 +13°C° 0 mm 1 mps 678 mmHg 72%
    06:00 +13°C° 0 mm 1 mps 678 mmHg 71%
    07:00 +15°C° 0 mm 2 mps 678 mmHg 62%
    08:00 +17°C° 0 mm 2 mps 678 mmHg 54%
    09:00 +19°C° 0 mm 3 mps 678 mmHg 45%
    10:00 +20°C° 0 mm 3 mps 678 mmHg 41%
    11:00 +21°C° 0 mm 4 mps 678 mmHg 38%
    12:00 +22°C° 0 mm 4 mps 678 mmHg 34%
    13:00 +21°C° 0.1 mm 4 mps 677 mmHg 37%
    14:00 +20°C° 0.1 mm 3 mps 677 mmHg 40%
    15:00 +20°C° 0.1 mm 3 mps 677 mmHg 43%
    16:00 +18°C° 0.4 mm 3 mps 676 mmHg 51%
    17:00 +16°C° 0.4 mm 2 mps 676 mmHg 59%
    18:00 +15°C° 0.4 mm 2 mps 676 mmHg 66%
    19:00 +14°C° 0.2 mm 1 mps 676 mmHg 68%
    20:00 +14°C° 0.2 mm 1 mps 676 mmHg 70%
    21:00 +13°C° 0.2 mm 1 mps 676 mmHg 72%
    22:00 +13°C° 0.1 mm 1 mps 675 mmHg 75%
    23:00 +12°C° 0.1 mm 1 mps 675 mmHg 77%

    Tomorrow, 21 April, Saturday

    Time Temperature Precipitation Wind Pressure Humidity
    00:00 +11°C° 0.1 mm 1 mps 675 mmHg 79%
    01:00 +11°C° 0.1 mm 1 mps 675 mmHg 81%
    02:00 +11°C° 0.1 mm 1 mps 675 mmHg 82%
    03:00 +10°C° 0.1 mm 1 mps 675 mmHg 84%
    04:00 +10°C° 0.1 mm 1 mps 676 mmHg 82%
    05:00 +10°C° 0.1 mm 1 mps 676 mmHg 81%
    06:00 +10°C° 0.1 mm 1 mps 676 mmHg 80%
    07:00 +10°C° 0.3 mm 2 mps 677 mmHg 76%
    08:00 +10°C° 0.3 mm 2 mps 677 mmHg 71%
    09:00 +12°C° 0.3 mm 2 mps 678 mmHg 67%
    10:00 +12°C° 0.4 mm 2 mps 678 mmHg 66%
    11:00 +11°C° 0.4 mm 3 mps 678 mmHg 65%
    12:00 +12°C° 0.4 mm 3 mps 678 mmHg 64%
    13:00 +12°C° 0.3 mm 3 mps 678 mmHg 65%
    14:00 +12°C° 0.3 mm 3 mps 678 mmHg 65%
    15:00 +12°C° 0.3 mm 3 mps 678 mmHg 65%
    16:00 +11°C° 0.7 mm 3 mps 678 mmHg 69%
    17:00 +10°C° 0.7 mm 2 mps 678 mmHg 73%
    18:00 +9°C° 0.7 mm 2 mps 678 mmHg 78%
    19:00 +9°C° 0.6 mm 2 mps 679 mmHg 79%
    20:00 +8°C° 0.6 mm 2 mps 679 mmHg 81%
    21:00 +8°C° 0.6 mm 2 mps 680 mmHg 83%
    22:00 +9°C° 0.8 mm 1 mps 680 mmHg 83%
    23:00 +9°C° 0.8 mm 1 mps 680 mmHg 84%

    Day after tomorrow, 22 April, Sunday

    Time Temperature Precipitation Wind Pressure Humidity
    00:00 +8°C° 0.8 mm 1 mps 680 mmHg 85%
    01:00 +8°C° 0.7 mm 1 mps 680 mmHg 85%
    02:00 +8°C° 0.7 mm 1 mps 680 mmHg 85%
    03:00 +8°C° 0.7 mm 1 mps 680 mmHg 85%
    04:00 +8°C° 0.4 mm 1 mps 681 mmHg 85%
    05:00 +8°C° 0.4 mm 1 mps 681 mmHg 86%
    06:00 +8°C° 0.4 mm 1 mps 681 mmHg 86%
    07:00 +9°C° 0.1 mm 1 mps 681 mmHg 83%
    08:00 +10°C° 0.1 mm 1 mps 681 mmHg 80%
    09:00 +10°C° 0.1 mm 2 mps 681 mmHg 78%
    10:00 +12°C° 0 mm 2 mps 681 mmHg 74%
    11:00 +13°C° 0 mm 2 mps 681 mmHg 70%
    12:00 +14°C° 0 mm 2 mps 681 mmHg 66%
    13:00 +15°C° 0 mm 2 mps 680 mmHg 65%
    14:00 +14°C° 0 mm 3 mps 680 mmHg 64%
    15:00 +16°C° 0 mm 3 mps 679 mmHg 63%
    16:00 +15°C° 0 mm 2 mps 679 mmHg 67%
    17:00 +14°C° 0 mm 2 mps 679 mmHg 71%
    18:00 +13°C° 0 mm 2 mps 679 mmHg 75%
    19:00 +12°C° 0 mm 1 mps 679 mmHg 77%
    20:00 +12°C° 0 mm 1 mps 680 mmHg 80%
    21:00 +11°C° 0 mm 1 mps 680 mmHg 83%
    22:00 +11°C° 0.1 mm 1 mps 680 mmHg 83%
    23:00 +11°C° 0.1 mm 1 mps 679 mmHg 83%

    23 April, Monday

    Time Temperature Precipitation Wind Pressure Humidity
    00:00 +11°C° 0.1 mm 1 mps 679 mmHg 83%
    01:00 +11°C° 0 mm 1 mps 679 mmHg 83%
    02:00 +11°C° 0 mm 1 mps 679 mmHg 84%
    03:00 +10°C° 0 mm 1 mps 678 mmHg 84%
    04:00 +10°C° 0.1 mm 1 mps 678 mmHg 84%
    05:00 +10°C° 0.1 mm 1 mps 679 mmHg 85%
    06:00 +10°C° 0.1 mm 1 mps 679 mmHg 85%
    07:00 +11°C° 0.3 mm 1 mps 679 mmHg 80%
    08:00 +12°C° 0.3 mm 1 mps 679 mmHg 76%
    09:00 +13°C° 0.3 mm 2 mps 680 mmHg 71%
    10:00 +13°C° 0.4 mm 2 mps 680 mmHg 71%
    11:00 +13°C° 0.4 mm 2 mps 679 mmHg 70%
    12:00 +13°C° 0.4 mm 2 mps 679 mmHg 70%
    13:00 +13°C° 0.4 mm 2 mps 679 mmHg 70%
    14:00 +13°C° 0.4 mm 2 mps 679 mmHg 71%
    15:00 +13°C° 0.4 mm 2 mps 679 mmHg 71%
    16:00 +12°C° 0.5 mm 2 mps 679 mmHg 74%
    17:00 +12°C° 0.5 mm 2 mps 679 mmHg 76%
    18:00 +10°C° 0.5 mm 2 mps 680 mmHg 79%
    19:00 +10°C° 0.4 mm 2 mps 680 mmHg 80%
    20:00 +10°C° 0.4 mm 1 mps 681 mmHg 82%
    21:00 +10°C° 0.4 mm 1 mps 682 mmHg 83%
    22:00 +10°C° 0 mm 1 mps 682 mmHg 83%
    23:00 +9°C° 0 mm 1 mps 682 mmHg 82%

    24 April, Tuesday

    Time Temperature Precipitation Wind Pressure Humidity
    00:00 +9°C° 0 mm 1 mps 682 mmHg 81%
    01:00 +9°C° 0 mm 1 mps 682 mmHg 80%
    02:00 +9°C° 0 mm 1 mps 682 mmHg 79%
    03:00 +8°C° 0 mm 1 mps 682 mmHg 78%
    04:00 +9°C° 0 mm 1 mps 682 mmHg 76%
    05:00 +9°C° 0 mm 1 mps 683 mmHg 74%
    06:00 +9°C° 0 mm 1 mps 683 mmHg 73%
    07:00 +11°C° 0 mm 1 mps 684 mmHg 66%
    08:00 +13°C° 0 mm 2 mps 684 mmHg 60%
    09:00 +15°C° 0 mm 2 mps 685 mmHg 54%
    10:00 +16°C° 0 mm 2 mps 685 mmHg 51%
    11:00 +17°C° 0 mm 3 mps 685 mmHg 47%
    12:00 +18°C° 0 mm 3 mps 685 mmHg 44%
    13:00 +18°C° 0 mm 3 mps 685 mmHg 44%
    14:00 +19°C° 0 mm 3 mps 685 mmHg 44%
    15:00 +19°C° 0 mm 3 mps 685 mmHg 44%
    16:00 +18°C° 0 mm 3 mps 685 mmHg 49%
    17:00 +17°C° 0 mm 2 mps 685 mmHg 55%
    18:00 +16°C° 0 mm 2 mps 685 mmHg 60%
    19:00 +15°C° 0 mm 1 mps 685 mmHg 65%
    20:00 +13°C° 0 mm 1 mps 685 mmHg 69%
    21:00 +12°C° 0 mm 1 mps 686 mmHg 74%
    22:00 +12°C° 0 mm 1 mps 686 mmHg 72%
    23:00 +12°C° 0 mm 1 mps 686 mmHg 71%

    25 April, Wednesday

    Time Temperature Precipitation Wind Pressure Humidity
    00:00 +11°C° 0 mm 1 mps 686 mmHg 70%
    01:00 +11°C° 0 mm 1 mps 686 mmHg 67%
    02:00 +11°C° 0 mm 1 mps 685 mmHg 65%
    03:00 +11°C° 0 mm 1 mps 685 mmHg 63%
    04:00 +11°C° 0 mm 1 mps 686 mmHg 61%
    05:00 +12°C° 0 mm 1 mps 686 mmHg 59%
    06:00 +12°C° 0 mm 1 mps 686 mmHg 58%
    07:00 +14°C° 0 mm 1 mps 686 mmHg 53%
    08:00 +16°C° 0 mm 1 mps 687 mmHg 49%
    09:00 +18°C° 0 mm 2 mps 687 mmHg 45%
    10:00 +19°C° 0 mm 2 mps 687 mmHg 43%
    11:00 +21°C° 0 mm 2 mps 686 mmHg 41%
    12:00 +23°C° 0 mm 2 mps 686 mmHg 39%
    13:00 +23°C° 0 mm 2 mps 685 mmHg 39%
    14:00 +23°C° 0 mm 2 mps 685 mmHg 39%
    15:00 +22°C° 0 mm 3 mps 684 mmHg 39%
    16:00 +21°C° 0 mm 2 mps 684 mmHg 44%
    17:00 +20°C° 0 mm 2 mps 684 mmHg 50%
    18:00 +20°C° 0 mm 1 mps 684 mmHg 55%
    19:00 +19°C° 0 mm 1 mps 684 mmHg 57%
    20:00 +16°C° 0 mm 1 mps 684 mmHg 59%
    21:00 +15°C° 0 mm 1 mps 684 mmHg 61%
    22:00 +15°C° 0 mm 1 mps 684 mmHg 60%
    23:00 +15°C° 0 mm 1 mps 684 mmHg 59%
    Show more